Weather History for KCBK - February, 2014

Change the Weather History Date:

Thursday, February 20, 2014

  Actual Average (KGLD) Record (KGLD)
Temperature  
Mean Temperature 32 °F 34 °F  
Max Temperature 41 °F 47 °F 73 °F (1972)
Min Temperature 24 °F 20 °F -1 °F (1953)
Degree Days  
Heating Degree Days 32 32  
Month to date heating degree days 674  
Since 1 July heating degree days 4177  
Cooling Degree Days 0 0  
Month to date cooling degree days 0  
Year to date cooling degree days 0  
Moisture  
Dew Point 27 °F    
Average Humidity 81    
Maximum Humidity 100    
Minimum Humidity 56    
Precipitation  
Precipitation 0.00 in 0.02 in 0.42 in (1953)
Month to date precipitation 0.32  
Year to date precipitation 0.70  
Snow  
Snow 0.00 in 0.20 in - ()
Month to date snowfall 4.1  
Since 1 July snowfall 22.7  
Snow Depth -    
Sea Level Pressure  
Sea Level Pressure 29.80 in    
Wind  
Wind Speed 19 mph (NW)    
Max Wind Speed 39 mph    
Max Gust Speed 56 mph    
Visibility 9 miles    
Events Rain , Snow    
T = Trace of Precipitation, MM = Missing Value Source: NWS Daily Summary

Daily Weather History Graph

Daily Weather History Graph

Search for Another Location

Airport or City:

Trip Planner

Search our weather history database for the weather conditions in past years. The results will help you decide how hot, cold, wet, or windy it might be!

Date:

Astronomy

Feb. 20, 2014 Rise Set
Actual Time 7:29 AM CST 6:26 PM CST
Civil Twilight 7:02 AM CST 6:54 PM CST
Nautical Twilight 6:31 AM CST 7:25 PM CST
Astronomical Twilight 6:00 AM CST 7:56 PM CST
Moon No Moon Rise 10:15 AM CST (2/20)
Length of Visible Light 11h 51m
Length of Day
10h 57m
Waning Gibbous, 70% of the Moon is Illuminated
Feb 20
Waning Gibbous
Feb 22
Last Quarter
Mar 1
New
Mar 8
First Quarter
Mar 16
Full

Hourly Weather History & Observations

Time (CST) Temp. Windchill Dew Point Humidity Pressure Visibility Wind Dir Wind Speed Gust Speed Precip Events Conditions
12:15 AM 41.0 °F 35.8 °F 32.0 °F 70% 29.52 in 10.0 mi North 8.1 mph - N/A   Overcast
12:35 AM 41.0 °F 33.9 °F 33.8 °F 76% 29.52 in 10.0 mi North 12.7 mph 16.1 mph N/A Rain Light Rain
12:55 AM 41.0 °F 31.6 °F 37.4 °F 87% 29.52 in 10.0 mi NNW 20.7 mph - N/A Rain Light Rain
1:15 AM 39.2 °F 28.3 °F 35.6 °F 87% 29.52 in 10.0 mi North 25.3 mph 33.4 mph N/A   Light Drizzle
1:35 AM 37.4 °F 25.2 °F 33.8 °F 87% 29.53 in 10.0 mi North 28.8 mph 36.8 mph N/A   Overcast
1:55 AM 35.6 °F 22.3 °F 32.0 °F 87% 29.54 in 10.0 mi NNW 31.1 mph 44.9 mph N/A   Overcast
2:15 AM 33.8 °F 19.6 °F 32.0 °F 93% 29.54 in 5.0 mi NNW 32.2 mph 46.0 mph N/A Snow Light Snow
2:35 AM 32.0 °F 16.7 °F 32.0 °F 100% 29.55 in 0.8 mi NNW 34.5 mph 44.9 mph N/A Snow Snow
2:55 AM 32.0 °F 16.0 °F 32.0 °F 100% 29.57 in 0.5 mi NNW 39.1 mph 56.4 mph N/A Snow Heavy Snow
3:15 AM 32.0 °F 18.1 °F 32.0 °F 100% 29.60 in 0.5 mi NNW 27.6 mph 42.6 mph N/A Snow Heavy Snow
3:35 AM 32.0 °F 16.2 °F 32.0 °F 100% 29.62 in 0.5 mi North 38.0 mph 48.3 mph N/A Snow Snow
3:55 AM 32.0 °F 17.6 °F 32.0 °F 100% 29.65 in 1.0 mi North 29.9 mph 42.6 mph N/A Snow Snow
4:15 AM 32.0 °F 17.9 °F 32.0 °F 100% 29.65 in 1.0 mi NNW 28.8 mph 39.1 mph N/A Snow Snow
4:35 AM 32.0 °F 18.6 °F 32.0 °F 100% 29.67 in 0.8 mi North 25.3 mph 35.7 mph N/A Snow Snow
4:55 AM 32.0 °F 18.6 °F 32.0 °F 100% 29.68 in 2.0 mi NNW 25.3 mph 36.8 mph N/A Snow Light Snow
5:15 AM 32.0 °F 19.5 °F 32.0 °F 100% 29.68 in 3.0 mi NNW 21.9 mph 32.2 mph N/A Snow Light Snow
5:35 AM 32.0 °F 18.4 °F 32.0 °F 100% 29.68 in 5.0 mi North 26.5 mph 31.1 mph N/A   Overcast
5:55 AM 32.0 °F 20.1 °F 32.0 °F 100% 29.71 in 10.0 mi North 19.6 mph 26.5 mph N/A   Overcast
6:15 AM 32.0 °F 20.1 °F 32.0 °F 100% 29.73 in 10.0 mi NNW 19.6 mph 25.3 mph N/A   Overcast
6:35 AM 32.0 °F 21.6 °F 32.0 °F 100% 29.74 in 10.0 mi NW 15.0 mph - N/A   Overcast
6:55 AM 30.2 °F 19.3 °F 30.2 °F 100% 29.74 in 10.0 mi NW 15.0 mph - N/A   Overcast
7:15 AM 32.0 °F 22.1 °F 30.2 °F 93% 29.76 in 10.0 mi NW 13.8 mph - N/A   Mostly Cloudy
7:35 AM 32.0 °F 20.8 °F 30.2 °F 93% 29.77 in 10.0 mi WNW 17.3 mph - N/A   Scattered Clouds
7:55 AM 30.2 °F 19.3 °F 28.4 °F 93% 29.79 in 10.0 mi WNW 15.0 mph - N/A   Clear
8:15 AM 30.2 °F 19.3 °F 26.6 °F 86% 29.79 in 10.0 mi NW 15.0 mph - N/A   Clear
8:35 AM 30.2 °F 18.9 °F 24.8 °F 80% 29.80 in 10.0 mi NW 16.1 mph - N/A   Clear
8:55 AM 32.0 °F 20.8 °F 24.8 °F 75% 29.81 in 10.0 mi NW 17.3 mph - N/A   Clear
9:10 AM 32.0 °F 21.2 °F 24.8 °F 75% 29.82 in 10.0 mi WNW 16.1 mph - N/A   Clear
9:35 AM 32.0 °F 19.8 °F 23.0 °F 69% 29.84 in 10.0 mi WNW 20.7 mph 25.3 mph N/A   Clear
9:55 AM 32.0 °F 19.5 °F 23.0 °F 69% 29.84 in 10.0 mi NW 21.9 mph 26.5 mph N/A   Clear
10:15 AM 32.0 °F 19.8 °F 24.8 °F 75% 29.85 in 10.0 mi WNW 20.7 mph 25.3 mph N/A   Clear
10:35 AM 32.0 °F 19.8 °F 24.8 °F 75% 29.86 in 10.0 mi WNW 20.7 mph 28.8 mph N/A   Clear
12:15 PM 35.6 °F 23.7 °F 26.6 °F 70% 29.88 in 10.0 mi WNW 24.2 mph 28.8 mph N/A   Clear
12:35 PM 35.6 °F 22.7 °F 26.6 °F 70% 29.88 in 10.0 mi WNW 28.8 mph 35.7 mph N/A   Clear
12:55 PM 37.4 °F 26.1 °F 28.4 °F 70% 29.88 in 10.0 mi WNW 24.2 mph 29.9 mph N/A   Clear
1:15 PM 37.4 °F 26.1 °F 26.6 °F 65% 29.88 in 10.0 mi WNW 24.2 mph 33.4 mph N/A   Clear
1:35 PM 37.4 °F 26.1 °F 24.8 °F 60% 29.88 in 10.0 mi NW 24.2 mph 40.3 mph N/A   Clear
1:55 PM 37.4 °F 25.9 °F 24.8 °F 60% 29.88 in 10.0 mi WNW 25.3 mph 36.8 mph N/A   Clear
2:15 PM 37.4 °F 25.9 °F 24.8 °F 60% 29.88 in 10.0 mi WNW 25.3 mph 34.5 mph N/A   Clear
2:30 PM 37.4 °F 26.1 °F 24.8 °F 60% 29.88 in 10.0 mi WNW 24.2 mph 36.8 mph N/A   Clear
5:15 PM 37.4 °F 27.8 °F 24.8 °F 60% 29.91 in 10.0 mi WNW 17.3 mph - N/A   Scattered Clouds
5:30 PM 37.4 °F 27.5 °F 23.0 °F 56% 29.91 in 10.0 mi WNW 18.4 mph - N/A   Clear
5:35 PM 37.4 °F 28.5 °F 24.8 °F 60% 29.92 in 10.0 mi WNW 15.0 mph - N/A   Clear
5:55 PM 35.6 °F 27.1 °F 23.0 °F 60% 29.92 in 10.0 mi WNW 12.7 mph - N/A   Scattered Clouds
6:15 PM 33.8 °F 25.3 °F 24.8 °F 70% 29.92 in 10.0 mi WNW 11.5 mph - N/A   Scattered Clouds
6:35 PM 33.8 °F 25.8 °F 23.0 °F 65% 29.93 in 10.0 mi WNW 10.4 mph - N/A   Clear
6:55 PM 32.0 °F 23.6 °F 23.0 °F 69% 29.93 in 10.0 mi WNW 10.4 mph - N/A   Clear
7:10 PM 32.0 °F 23.6 °F 23.0 °F 69% 29.93 in 10.0 mi WNW 10.4 mph - N/A   Clear
7:30 PM 28.4 °F 19.7 °F 23.0 °F 80% 29.94 in 10.0 mi West 9.2 mph - N/A   Clear
7:55 PM 28.4 °F 19.1 °F 23.0 °F 80% 29.95 in 10.0 mi West 10.4 mph - N/A   Clear
8:15 PM 28.4 °F 20.4 °F 23.0 °F 80% 29.95 in 10.0 mi WNW 8.1 mph - N/A   Clear
8:30 PM 26.6 °F 18.2 °F 21.2 °F 80% 29.95 in 10.0 mi WNW 8.1 mph - N/A   Clear
8:50 PM 24.8 °F 16.1 °F 21.2 °F 86% 29.93 in 10.0 mi West 8.1 mph - N/A   Clear
9:10 PM 24.8 °F 15.3 °F 21.2 °F 86% 29.94 in 10.0 mi West 9.2 mph - N/A   Clear
9:30 PM 26.6 °F 17.5 °F 21.2 °F 80% 29.94 in 10.0 mi WSW 9.2 mph - N/A   Clear
9:55 PM 26.6 °F 17.5 °F 21.2 °F 80% 29.93 in 10.0 mi West 9.2 mph - N/A   Clear
10:10 PM 24.8 °F 15.3 °F 19.4 °F 80% 29.93 in 10.0 mi West 9.2 mph - N/A   Clear
10:30 PM 24.8 °F 15.3 °F 19.4 °F 80% 29.92 in 10.0 mi WSW 9.2 mph - N/A   Clear
10:55 PM 26.6 °F 15.7 °F 19.4 °F 74% 29.93 in 10.0 mi West 12.7 mph - N/A   Clear
11:15 PM 26.6 °F 17.5 °F 19.4 °F 74% 29.92 in 10.0 mi WSW 9.2 mph - N/A   Clear
11:35 PM 24.8 °F 15.3 °F 19.4 °F 80% 29.91 in 10.0 mi West 9.2 mph - N/A   Clear
11:55 PM 26.6 °F 16.2 °F 19.4 °F 74% 29.91 in 10.0 mi West 11.5 mph - N/A   Clear